This demonstration page uses our WeatherBlox Daily Observations layout. Learn more.

Left ArrowRight Arrow

39.08367, -84.50855

Hourly Observations for March 21, 2016

Temp ( °F °C ) Dew Point ( °F °C ) Humidity (%) Winds ( mph kmh ) Pressure ( in mb ) Visibility ( mi km ) Precip ( " mm )
12:53 am 00:53 Clear 37 2.8 24 -4.4 59 59 VRB 5 7 30.15 1021 10 16.0934 N/A
1:53 am 01:53 Clear 36 2.2 22 -5.6 57 57 NW 6 9 30.15 1021 10 16.0934 N/A
2:53 am 02:53 Clear 35 1.7 21 -6.1 57 57 WNW 8 13 30.16 1021 10 16.0934 N/A
3:53 am 03:53 Clear 35 1.7 21 -6.1 57 57 WNW 7 11 30.15 1021 10 16.0934 N/A
4:53 am 04:53 Clear 33 0.6 22 -5.6 64 64 W 6 9 30.15 1021 10 16.0934 N/A
5:53 am 05:53 Mostly Clear 33 0.6 22 -5.6 64 64 W 9 15 30.16 1022 10 16.0934 N/A
6:53 am 06:53 Mostly Cloudy 33 0.6 22 -5.6 64 64 WNW 5 7 30.19 1022 10 16.0934 N/A
7:53 am 07:53 Mostly Cloudy 33 0.6 23 -5 66 66 W 6 9 30.21 1023 10 16.0934 N/A
8:53 am 08:53 Sunny 36 2.2 24 -4.4 62 62 W 6 9 30.22 1023 10 16.0934 N/A
9:53 am 09:53 Sunny 39 3.9 24 -4.4 55 55 VRB 6 9 30.23 1024 10 16.0934 N/A
10:53 am 10:53 Sunny 42 5.6 26 -3.3 53 53 VRB 5 7 30.23 1024 10 16.0934 N/A
11:53 am 11:53 Sunny 45 7.2 28 -2.2 52 52 W 7 11 30.23 1024 10 16.0934 N/A
12:53 pm 12:53 Mostly Cloudy 47 8.3 28 -2.2 48 48 NW 10 17 30.23 1024 10 16.0934 N/A
1:53 pm 13:53 Mostly Sunny 49 9.4 27 -2.8 43 43 W 10 17 30.2 1023 10 16.0934 N/A
2:53 pm 14:53 Sunny 50 10 26 -3.3 39 39 W 10 17 30.18 1022 10 16.0934 N/A
3:53 pm 15:53 Mostly Sunny 52 11.1 28 -2.2 40 40 WSW 14 22 30.16 1022 10 16.0934 N/A
4:53 pm 16:53 Mostly Sunny 52 11.1 27 -2.8 38 38 WSW 14 22 30.16 1021 10 16.0934 N/A
5:53 pm 17:53 Mostly Sunny 51 10.6 26 -3.3 38 38 SW 16 26 30.15 1021 10 16.0934 N/A
6:53 pm 18:53 Mostly Sunny 50 10 26 -3.3 39 39 SW 12 19 30.15 1021 10 16.0934 N/A
7:53 pm 19:53 Clear 47 8.3 26 -3.3 44 44 SW 10 17 30.15 1021 10 16.0934 N/A
8:53 pm 20:53 Clear 45 7.2 27 -2.8 49 49 SW 9 15 30.15 1021 10 16.0934 N/A
9:53 pm 21:53 Clear 42 5.6 28 -2.2 58 58 SW 7 11 30.16 1021 10 16.0934 N/A
10:53 pm 22:53 Clear 39 3.9 28 -2.2 65 65 SSW 6 9 30.17 1022 10 16.0934 N/A
11:53 pm 23:53 Clear 38 3.3 29 -1.7 70 70 N N/A 30.16 1022 10 16.0934 N/A

Powered by AerisWeather